[[{"header":{"parameterUnit":"m.s-1","parameterCategory":1,"la1":30.2991,"la2":30.254,"lo1":-89.0895,"lo2":-89.0444,"dy":0.0017,"dx":0.0017,"nx":28,"ny":28,"refTime":"2025-08-05T03:00:00:Z","depth":0,"parameterNumber":2,"parameterNumberName":"U-component_of_WINDS"},"data":[0,0,0,0,0,0,0,0,0,0,0,0,0,0,0,0,0,0,0,0,0,0,0,0,0,0,0,0,0,0,0,0,0,0,0,0,0,0,0,0,0,0,0,0,0,0,0,0,0,0,0,0,0,0,0,0,0,0,-2.5276,-2.5275,0,-2.5146,-2.5144,-2.5143,-2.5038,-2.5037,-2.5036,-2.5035,-2.4895,-2.4892,-2.4889,0,0,0,0,0,0,0,0,0,0,0,0,0,-2.5426,-2.5424,-2.5276,-2.5275,-2.5273,-2.5146,-2.5144,-2.5143,-2.5039,-2.5037,-2.5036,-2.5035,-2.4896,-2.4892,-2.4889,0,0,0,0,0,0,0,0,0,0,0,0,0,-2.5335,-2.5423,-2.5277,-2.5206,-2.5198,-2.5147,-2.5144,-2.5142,-2.5039,-2.5037,-2.5036,-2.5034,-2.4897,-2.4893,-2.4889,-2.4894,0,0,-2.4876,-2.4874,0,0,0,0,0,0,0,0,-2.534,-2.533,-2.5218,-2.5211,-2.5202,-2.5107,-2.5146,-2.5059,-2.5039,-2.5099,-2.5035,-2.5034,-2.4966,-2.4956,-2.4935,-2.4887,-2.4881,-2.4875,-2.4873,-2.4871,-2.487,0,0,0,0,0,0,0,-2.5347,-2.5335,-2.5224,-2.5217,-2.5207,-2.5178,-2.5163,-2.5129,-2.5043,-2.5094,-2.5086,-2.5072,-2.4961,-2.4939,-2.4931,-2.4879,-2.4876,-2.4872,-2.4869,-2.4868,-2.4824,-2.4825,0,0,0,0,0,0,-2.5365,-2.5341,-2.5229,-2.5221,-2.5269,-2.5177,-2.516,-2.5139,-2.5043,-2.5027,-2.5074,-2.5068,-2.4947,-2.4936,-2.4926,-2.4922,-2.4871,-2.4867,-2.4865,-2.4823,-2.4824,-2.4826,0,0,0,0,0,0,-2.5369,-2.5356,-2.5234,-2.5278,-2.5261,-2.5176,-2.5153,-2.5137,-2.5115,-2.5028,-2.5011,-2.5068,-2.4945,-2.4931,-2.4902,-2.4916,-2.4865,-2.4862,-2.4821,-2.4823,-2.4825,-2.4917,0,0,0,0,0,0,-2.5374,-2.5358,-2.5362,-2.5279,-2.5259,-2.5216,-2.5154,-2.5136,-2.5109,-2.51,-2.5017,-2.5002,-2.4943,-2.4909,-2.4898,-2.4909,-2.4858,-2.482,-2.4822,-2.4825,-2.4913,-2.4922,-2.4931,0,0,0,0,0,-2.5379,-2.5392,-2.5362,-2.5349,-2.5262,-2.5217,-2.5205,-2.5139,-2.5111,-2.5111,-2.5055,-2.5005,-2.4917,-2.4907,-2.4893,-2.4904,-2.4818,-2.4821,-2.4824,-2.4909,-2.492,-2.493,0,0,0,0,0,0,-2.5476,-2.538,-2.5346,-2.5333,-2.5284,-2.5199,-2.5199,-2.5154,-2.511,-2.5103,-2.502,-2.5002,-2.4981,-2.4939,-2.493,-2.4901,-2.4861,-2.4861,-2.4929,-2.494,-2.4948,-2.4958,-2.4855,0,0,0,0,0,-2.5497,-2.5471,-2.5387,-2.5384,-2.5361,-2.5285,-2.5263,-2.5216,-2.5161,-2.5139,-2.508,-2.5026,-2.4985,-2.4961,-2.4919,-2.4907,-2.4884,-2.4907,-2.4916,-2.4924,-2.4924,-2.491,-2.4917,-2.4836,-2.4836,-2.4836,0,0,-2.5538,-2.5482,-2.547,-2.5402,-2.5358,-2.533,-2.5268,-2.5241,-2.5218,-2.5134,-2.5102,-2.5057,-2.4991,-2.497,-2.4957,-2.4934,-2.4942,-2.4927,-2.4934,-2.493,-2.4914,-2.4922,-2.4929,-2.4838,-2.4838,-2.4837,0,0,-2.5597,-2.5555,-2.5545,-2.5503,-2.5438,-2.5387,-2.5385,-2.5306,-2.5273,-2.5241,-2.5176,-2.5146,-2.5079,-2.5034,-2.5002,-2.5042,-2.4992,-2.5031,-2.5076,-2.5063,-2.507,-2.5075,-2.5085,-2.5091,-2.5032,-2.5032,-2.5032,0,-2.5655,-2.5613,-2.5545,-2.5522,-2.5492,-2.5416,-2.5404,-2.5365,-2.529,-2.5269,-2.5246,-2.5158,-2.5108,-2.5073,-2.5083,-2.5061,-2.5052,-2.5039,-2.5075,-2.5079,-2.5083,-2.5092,-2.5097,-2.5037,-2.5036,-2.5036,-2.5035,0,-2.5686,-2.5657,-2.5657,-2.5588,-2.5558,-2.554,-2.5467,-2.5444,-2.5399,-2.5349,-2.5315,-2.5253,-2.5195,-2.5184,-2.514,-2.5141,-2.5128,-2.5091,-2.5048,-2.5097,-2.5104,-2.5107,-2.5044,-2.5042,-2.5041,-2.5039,0,0,-2.5802,-2.5695,-2.5696,-2.5662,-2.5584,-2.5559,-2.5536,-2.5482,-2.5462,-2.5412,-2.5388,-2.5333,-2.5297,-2.5261,-2.5211,-2.52,-2.5231,-2.5163,-2.516,-2.5175,-2.5223,-2.5249,-2.5255,-2.5198,-2.5199,-2.5199,-2.5227,0,-2.5847,-2.5805,-2.5742,-2.5719,-2.569,-2.5616,-2.5596,-2.5544,-2.5496,-2.5461,-2.5407,-2.5368,-2.5326,-2.5303,-2.5289,-2.523,-2.5238,-2.5228,-2.5171,-2.517,-2.5187,-2.5259,-2.5287,-2.5317,-2.523,-2.523,-2.523,0,-2.5894,-2.5849,-2.5824,-2.5746,-2.5731,-2.5714,-2.5657,-2.5627,-2.5564,-2.553,-2.5489,-2.5435,-2.5403,-2.5366,-2.5318,-2.5312,-2.5285,-2.5252,-2.5251,-2.5241,-2.5201,-2.5247,-2.5325,-2.5328,-2.5235,-2.5234,-2.5234,0,-2.5977,-2.591,-2.5885,-2.5859,-2.5768,-2.5758,-2.5719,-2.5656,-2.5626,-2.5576,-2.5555,-2.5501,-2.547,-2.5428,-2.5359,-2.5339,-2.5317,-2.5275,-2.5283,-2.5285,-2.528,-2.5281,-2.5351,-2.5268,-2.5268,-2.5268,-2.5268,0,-2.6031,-2.6018,-2.5921,-2.5906,-2.5887,-2.5814,-2.5796,-2.575,-2.5694,-2.5665,-2.5598,-2.5572,-2.5484,-2.5446,-2.5391,-2.5357,-2.5345,-2.5313,-2.5298,-2.5317,-2.5321,-2.5296,-2.5291,-2.5269,-2.5269,-2.5269,-2.5269,0,-2.6121,-2.6056,-2.6024,-2.5941,-2.5919,-2.5909,-2.5835,-2.5815,-2.5764,-2.5728,-2.5715,-2.5633,-2.5584,-2.5512,-2.5441,-2.5404,-2.5378,-2.5355,-2.5399,-2.539,-2.5401,-2.54,-2.5456,-2.5458,-2.5377,-2.5378,-2.5379,0,-2.6159,-2.6146,-2.6062,-2.6039,-2.6003,-2.5968,-2.5937,-2.5864,-2.5834,-2.5761,-2.5749,-2.5696,-2.5649,-2.5575,-2.5506,-2.545,-2.5424,-2.5447,-2.5415,-2.5434,-2.542,-2.542,-2.5417,-2.5454,-2.5456,-2.5457,-2.5458,0,-2.6231,-2.6199,-2.616,-2.6108,-2.6074,-2.6029,-2.5981,-2.5965,-2.588,-2.5849,-2.5801,-2.5765,-2.5693,-2.5639,-2.5574,-2.5529,-2.5477,-2.5469,-2.5467,-2.5485,-2.551,-2.5493,-2.5417,-2.5467,-2.5466,-2.5465,-2.5465,-2.5465,-2.6293,-2.6278,-2.6216,-2.6172,-2.6129,-2.6085,-2.6061,-2.6007,-2.5965,-2.5903,-2.5861,-2.5813,-2.5747,-2.5655,-2.5613,-2.5571,-2.5549,-2.5548,-2.5547,-2.5547,-2.5552,-2.5519,-2.5559,-2.5559,-2.5559,-2.5558,-2.5558,0,-2.6359,-2.6316,-2.6277,-2.6212,-2.6177,-2.6135,-2.6079,-2.6051,-2.6011,-2.5955,-2.5911,-2.5852,-2.58,-2.5727,-2.5667,-2.5648,-2.5622,-2.5634,-2.5633,-2.5623,-2.5577,-2.5583,-2.5656,-2.5656,-2.5656,-2.5656,-2.5656,-2.5656,-2.639,-2.636,-2.6321,-2.6268,-2.6223,-2.6178,-2.6148,-2.6106,-2.6061,-2.5999,-2.5956,-2.591,-2.5845,-2.5781,-2.5728,-2.5708,-2.5687,-2.5706,-2.5678,-2.5636,-2.5627,-2.5618,-2.5623,-2.5703,-2.5703,-2.5727,-2.5727,-2.5727]},{"header":{"parameterUnit":"m.s-1","parameterCategory":1,"la1":30.2991,"la2":30.254,"lo1":-89.0895,"lo2":-89.0444,"dy":0.0017,"dx":0.0017,"nx":28,"ny":28,"refTime":"2025-08-05T03:00:00:Z","depth":0,"parameterNumber":3,"parameterNumberName":"V-component_of_WINDS"},"data":[0,0,0,0,0,0,0,0,0,0,0,0,0,0,0,0,0,0,0,0,0,0,0,0,0,0,0,0,0,0,0,0,0,0,0,0,0,0,0,0,0,0,0,0,0,0,0,0,0,0,0,0,0,0,0,0,0,0,-0.2753,-0.2754,0,-0.2858,-0.2859,-0.286,-0.2851,-0.2849,-0.2847,-0.2846,-0.296,-0.2965,-0.2969,0,0,0,0,0,0,0,0,0,0,0,0,0,-0.2553,-0.2557,-0.2753,-0.2754,-0.2756,-0.2858,-0.2859,-0.286,-0.2851,-0.2849,-0.2847,-0.2845,-0.2959,-0.2964,-0.2969,0,0,0,0,0,0,0,0,0,0,0,0,0,-0.2647,-0.2558,-0.2753,-0.2763,-0.2765,-0.2857,-0.2859,-0.2861,-0.2851,-0.2849,-0.2846,-0.2844,-0.2957,-0.2963,-0.297,-0.3061,0,0,-0.2991,-0.2994,0,0,0,0,0,0,0,0,-0.2642,-0.2655,-0.276,-0.2763,-0.2765,-0.2838,-0.283,-0.2928,-0.2852,-0.2819,-0.2846,-0.2843,-0.2922,-0.2932,-0.2957,-0.3067,-0.3071,-0.2992,-0.2996,-0.2999,-0.3001,0,0,0,0,0,0,0,-0.2635,-0.265,-0.2795,-0.2762,-0.2765,-0.2765,-0.2776,-0.2849,-0.2883,-0.2821,-0.2821,-0.2833,-0.2923,-0.295,-0.2959,-0.3073,-0.2991,-0.2998,-0.3002,-0.3004,-0.3266,-0.3269,0,0,0,0,0,0,-0.2625,-0.2645,-0.2791,-0.2798,-0.2696,-0.2771,-0.2782,-0.2817,-0.2882,-0.289,-0.2835,-0.2832,-0.294,-0.2951,-0.2963,-0.3076,-0.2999,-0.3005,-0.3009,-0.3263,-0.3267,-0.327,0,0,0,0,0,0,-0.2621,-0.2639,-0.2787,-0.2721,-0.274,-0.2777,-0.2816,-0.2821,-0.2848,-0.2892,-0.2899,-0.2856,-0.2938,-0.2954,-0.3037,-0.308,-0.3008,-0.3014,-0.326,-0.3264,-0.3268,-0.3302,0,0,0,0,0,0,-0.2615,-0.2637,-0.267,-0.2722,-0.2744,-0.2857,-0.2818,-0.2825,-0.2859,-0.2856,-0.2914,-0.2921,-0.2938,-0.3027,-0.3044,-0.3088,-0.302,-0.3256,-0.3262,-0.3267,-0.3297,-0.3307,-0.3315,0,0,0,0,0,-0.2608,-0.2676,-0.2672,-0.269,-0.2785,-0.2859,-0.2872,-0.2887,-0.2862,-0.2897,-0.2926,-0.292,-0.3072,-0.3036,-0.3055,-0.3102,-0.3254,-0.326,-0.3267,-0.3293,-0.3305,-0.3315,0,0,0,0,0,0,-0.2631,-0.2683,-0.2679,-0.2765,-0.2808,-0.2857,-0.2902,-0.2899,-0.2951,-0.2947,-0.2965,-0.2979,-0.3063,-0.3091,-0.3049,-0.3195,-0.316,-0.3171,-0.3174,-0.3185,-0.3194,-0.3187,-0.3025,0,0,0,0,0,-0.2645,-0.2699,-0.2742,-0.2815,-0.2836,-0.2865,-0.2898,-0.2906,-0.2952,-0.297,-0.3005,-0.3052,-0.3111,-0.3149,-0.3206,-0.33,-0.3315,-0.3343,-0.3351,-0.3358,-0.3368,-0.3424,-0.3437,-0.3291,-0.3291,-0.3291,0,0,-0.2677,-0.2712,-0.2745,-0.282,-0.2854,-0.2911,-0.2881,-0.2942,-0.2986,-0.2981,-0.3061,-0.3089,-0.3142,-0.3232,-0.3274,-0.3258,-0.3412,-0.3367,-0.3372,-0.3378,-0.3432,-0.3445,-0.3458,-0.3295,-0.3295,-0.3294,0,0,-0.2764,-0.2795,-0.2859,-0.2894,-0.2944,-0.2964,-0.2979,-0.303,-0.3047,-0.3128,-0.3126,-0.3179,-0.3279,-0.3319,-0.3352,-0.3455,-0.3452,-0.3473,-0.352,-0.3574,-0.3586,-0.3596,-0.3636,-0.365,-0.3482,-0.3482,-0.3482,0,-0.2798,-0.2882,-0.2893,-0.2956,-0.299,-0.2986,-0.3053,-0.3086,-0.3154,-0.318,-0.316,-0.3287,-0.3322,-0.3423,-0.3448,-0.3474,-0.3495,-0.3467,-0.3582,-0.3593,-0.3603,-0.3641,-0.3656,-0.3484,-0.3484,-0.3484,-0.3484,0,-0.2922,-0.298,-0.3027,-0.309,-0.313,-0.3194,-0.3219,-0.3258,-0.3263,-0.3285,-0.3369,-0.3412,-0.3478,-0.3502,-0.3507,-0.3604,-0.3593,-0.3578,-0.3544,-0.3619,-0.3656,-0.367,-0.3488,-0.3487,-0.3486,-0.3486,0,0,-0.3027,-0.3096,-0.3113,-0.3143,-0.3199,-0.3246,-0.3312,-0.3374,-0.3409,-0.3456,-0.3514,-0.3599,-0.3586,-0.3623,-0.3634,-0.368,-0.3763,-0.366,-0.3662,-0.368,-0.3876,-0.3889,-0.3906,-0.3761,-0.3763,-0.3766,-0.3873,0,-0.3121,-0.3235,-0.3248,-0.335,-0.3406,-0.3403,-0.3461,-0.3504,-0.3527,-0.358,-0.3606,-0.3667,-0.3643,-0.3666,-0.3712,-0.3743,-0.3803,-0.3735,-0.3818,-0.3821,-0.3807,-0.3924,-0.3938,-0.4037,-0.3887,-0.3889,-0.3891,0,-0.3247,-0.3296,-0.3403,-0.3454,-0.3478,-0.3529,-0.3589,-0.3638,-0.3688,-0.3701,-0.3744,-0.3748,-0.382,-0.3781,-0.3882,-0.3836,-0.387,-0.3891,-0.3895,-0.3906,-0.3862,-0.3941,-0.4068,-0.4084,-0.3913,-0.3911,-0.3909,0,-0.3315,-0.3409,-0.3486,-0.3511,-0.3571,-0.3607,-0.3635,-0.3681,-0.3719,-0.3772,-0.3797,-0.3858,-0.3893,-0.3941,-0.3964,-0.3933,-0.4065,-0.4027,-0.4081,-0.4081,-0.4111,-0.4109,-0.4249,-0.4129,-0.4128,-0.4128,-0.4128,0,-0.3421,-0.3488,-0.3517,-0.3565,-0.3641,-0.3656,-0.3732,-0.3758,-0.38,-0.3855,-0.3857,-0.3909,-0.3934,-0.3992,-0.401,-0.4093,-0.4107,-0.4123,-0.4128,-0.4125,-0.4123,-0.415,-0.4144,-0.4132,-0.4131,-0.413,-0.413,0,-0.3511,-0.3533,-0.3618,-0.3667,-0.3681,-0.3735,-0.3779,-0.3827,-0.3849,-0.392,-0.3937,-0.3973,-0.4041,-0.4068,-0.4151,-0.4163,-0.426,-0.4257,-0.4242,-0.4244,-0.4298,-0.4294,-0.4462,-0.4486,-0.4347,-0.4349,-0.435,0,-0.3578,-0.3629,-0.3684,-0.372,-0.3748,-0.3806,-0.3844,-0.3862,-0.3902,-0.3963,-0.4005,-0.4072,-0.4126,-0.4235,-0.4271,-0.4336,-0.4337,-0.4391,-0.4347,-0.4343,-0.4342,-0.434,-0.4347,-0.4401,-0.4402,-0.4403,-0.4404,0,-0.3696,-0.3704,-0.3757,-0.3815,-0.386,-0.3907,-0.3953,-0.3984,-0.4009,-0.4055,-0.4123,-0.4165,-0.425,-0.4318,-0.4385,-0.4416,-0.4417,-0.4417,-0.4434,-0.4433,-0.4423,-0.4432,-0.4268,-0.4414,-0.4413,-0.4412,-0.4412,-0.4411,-0.3778,-0.3824,-0.387,-0.3931,-0.3967,-0.401,-0.4058,-0.4086,-0.4142,-0.4211,-0.4219,-0.4294,-0.4345,-0.4434,-0.4468,-0.4529,-0.4515,-0.4538,-0.4545,-0.4551,-0.4556,-0.4411,-0.4541,-0.4541,-0.4541,-0.454,-0.454,0,-0.3898,-0.3928,-0.3982,-0.4046,-0.4095,-0.4087,-0.4138,-0.418,-0.4244,-0.4291,-0.4344,-0.4425,-0.4491,-0.4532,-0.46,-0.4641,-0.4643,-0.4658,-0.4657,-0.4665,-0.4563,-0.4543,-0.4656,-0.4656,-0.4656,-0.4656,-0.4656,-0.4656,-0.3966,-0.4045,-0.4059,-0.4157,-0.4187,-0.4258,-0.4288,-0.433,-0.4367,-0.4456,-0.451,-0.4535,-0.4581,-0.4652,-0.4714,-0.4725,-0.4752,-0.4769,-0.4779,-0.4684,-0.4672,-0.4661,-0.4642,-0.4774,-0.4774,-0.4876,-0.4877,-0.4878]}]]